Time,TemperatureF,DewpointF,PressureIn,WindDirection,WindDirectionDegrees,WindSpeedMPH,WindSpeedGustMPH,Humidity,HourlyPrecipIn,Conditions,Clouds,dailyrainin,SoftwareType,DateUTC
2013-03-14 00:02:00,38.0,25.0,-100.00,NE,40,4.0,6.0,60,-99.99,,,0.00,,2013-03-14 06:02:00,
2013-03-14 00:12:00,38.0,25.0,-100.00,NNE,30,6.0,10.0,61,-99.99,,,-99.99,,2013-03-14 06:12:00,
2013-03-14 00:22:00,38.0,25.0,-100.00,NNE,30,6.0,10.0,61,-99.99,,,-99.99,,2013-03-14 06:22:00,
2013-03-14 00:32:00,38.0,25.0,-100.00,NE,40,4.0,6.0,60,-99.99,,,0.00,,2013-03-14 06:32:00,
2013-03-14 00:42:00,38.0,25.0,-100.00,NE,40,4.0,6.0,60,-99.99,,,0.00,,2013-03-14 06:42:00,
2013-03-14 00:52:00,38.0,25.0,-100.00,NE,40,4.0,6.0,60,-99.99,,,0.00,,2013-03-14 06:52:00,
2013-03-14 01:01:00,34.0,25.0,-100.00,ENE,60,1.0,4.0,68,-99.99,,,0.00,,2013-03-14 07:01:00,
2013-03-14 01:12:00,37.0,25.0,-100.00,North,5,2.0,4.0,60,-99.99,,,-99.99,,2013-03-14 07:12:00,
2013-03-14 01:22:00,37.0,25.0,-100.00,North,5,2.0,4.0,60,-99.99,,,-99.99,,2013-03-14 07:22:00,
2013-03-14 01:32:00,34.0,25.0,-100.00,ENE,60,1.0,4.0,68,-99.99,,,0.00,,2013-03-14 07:32:00,
2013-03-14 01:42:00,34.0,25.0,-100.00,ENE,60,1.0,4.0,68,-99.99,,,0.00,,2013-03-14 07:42:00,
2013-03-14 01:52:00,34.0,25.0,-100.00,ENE,60,1.0,4.0,68,-99.99,,,0.00,,2013-03-14 07:52:00,
2013-03-14 02:12:00,32.0,24.0,-100.00,NNE,25,4.0,6.0,71,-99.99,,,0.00,,2013-03-14 08:12:00,
2013-03-14 02:21:00,32.0,24.0,-100.00,NNE,25,4.0,6.0,71,-99.99,,,0.00,,2013-03-14 08:21:00,
2013-03-14 02:32:00,36.0,24.0,-100.00,ENE,70,1.0,4.0,60,-99.99,,,0.00,,2013-03-14 08:32:00,
2013-03-14 02:42:00,36.0,24.0,-100.00,ENE,70,1.0,4.0,60,-99.99,,,0.00,,2013-03-14 08:42:00,
2013-03-14 02:51:00,36.0,24.0,-100.00,ENE,70,1.0,4.0,60,-99.99,,,0.00,,2013-03-14 08:51:00,
2013-03-14 03:01:00,36.0,24.0,-100.00,ENE,70,1.0,4.0,60,-99.99,,,0.00,,2013-03-14 09:01:00,
2013-03-14 03:12:00,32.0,23.0,-100.00,ENE,65,3.0,4.0,68,-99.99,,,-99.99,,2013-03-14 09:12:00,
2013-03-14 03:22:00,32.0,23.0,-100.00,ENE,65,3.0,4.0,68,-99.99,,,-99.99,,2013-03-14 09:22:00,
2013-03-14 03:32:00,33.0,23.0,-100.00,NNE,25,1.0,5.0,67,-99.99,,,0.00,,2013-03-14 09:32:00,
2013-03-14 03:42:00,33.0,23.0,-100.00,NNE,25,1.0,5.0,67,-99.99,,,0.00,,2013-03-14 09:42:00,
2013-03-14 03:52:00,33.0,23.0,-100.00,NNE,25,1.0,5.0,67,-99.99,,,0.00,,2013-03-14 09:52:00,
2013-03-14 04:01:00,31.0,22.0,-100.00,NE,35,1.0,4.0,70,-99.99,,,0.00,,2013-03-14 10:01:00,
2013-03-14 04:12:00,32.0,23.0,-100.00,NE,35,4.0,5.0,70,-99.99,,,-99.99,,2013-03-14 10:12:00,
2013-03-14 04:22:00,32.0,23.0,-100.00,NE,35,4.0,5.0,70,-99.99,,,-99.99,,2013-03-14 10:22:00,
2013-03-14 04:32:00,31.0,22.0,-100.00,NE,35,1.0,4.0,70,-99.99,,,0.00,,2013-03-14 10:32:00,
2013-03-14 04:42:00,31.0,22.0,-100.00,NE,35,1.0,4.0,70,-99.99,,,0.00,,2013-03-14 10:42:00,
2013-03-14 04:52:00,31.0,22.0,-100.00,NE,35,1.0,4.0,70,-99.99,,,0.00,,2013-03-14 10:52:00,
2013-03-14 05:01:00,32.0,22.0,-100.00,SSW,205,3.0,5.0,66,-99.99,,,0.00,,2013-03-14 11:01:00,
2013-03-14 05:12:00,31.0,22.0,-100.00,NE,50,2.0,4.0,69,-99.99,,,-99.99,,2013-03-14 11:12:00,
2013-03-14 05:22:00,31.0,22.0,-100.00,NE,50,2.0,4.0,69,-99.99,,,-99.99,,2013-03-14 11:22:00,
2013-03-14 05:32:00,32.0,22.0,-100.00,SSW,205,3.0,5.0,66,-99.99,,,0.00,,2013-03-14 11:32:00,
2013-03-14 05:42:00,32.0,22.0,-100.00,SSW,205,3.0,5.0,66,-99.99,,,0.00,,2013-03-14 11:42:00,
2013-03-14 05:52:00,32.0,22.0,-100.00,SSW,205,3.0,5.0,66,-99.99,,,0.00,,2013-03-14 11:52:00,
2013-03-14 06:02:00,37.0,22.0,-100.00,SSW,210,7.0,11.0,54,-99.99,,,0.00,,2013-03-14 12:02:00,
2013-03-14 06:12:00,37.0,23.0,-100.00,SSW,205,9.0,12.0,56,-99.99,,,0.00,,2013-03-14 12:12:00,
2013-03-14 06:22:00,37.0,23.0,-100.00,SSW,205,9.0,12.0,56,-99.99,,,0.00,,2013-03-14 12:22:00,
2013-03-14 06:33:00,37.0,22.0,-100.00,SSW,210,7.0,11.0,54,-99.99,,,0.00,,2013-03-14 12:33:00,
2013-03-14 06:42:00,37.0,22.0,-100.00,SSW,210,7.0,11.0,54,-99.99,,,0.00,,2013-03-14 12:42:00,
2013-03-14 06:52:00,37.0,22.0,-100.00,SSW,210,7.0,11.0,54,-99.99,,,0.00,,2013-03-14 12:52:00,
2013-03-14 07:02:00,36.0,22.0,-100.00,SW,230,8.0,11.0,58,-99.99,,,0.00,,2013-03-14 13:02:00,
2013-03-14 07:12:00,37.0,23.0,-100.00,SW,235,9.0,11.0,56,-99.99,,,-99.99,,2013-03-14 13:12:00,
2013-03-14 07:22:00,37.0,23.0,-100.00,SW,235,9.0,11.0,56,-99.99,,,-99.99,,2013-03-14 13:22:00,
2013-03-14 07:32:00,36.0,22.0,-100.00,SW,230,8.0,11.0,58,-99.99,,,0.00,,2013-03-14 13:32:00,
2013-03-14 07:43:00,36.0,22.0,-100.00,SW,230,8.0,11.0,58,-99.99,,,0.00,,2013-03-14 13:43:00,
2013-03-14 07:52:00,36.0,22.0,-100.00,SW,230,8.0,11.0,58,-99.99,,,0.00,,2013-03-14 13:52:00,
2013-03-14 08:01:00,38.0,22.0,-100.00,SSW,200,8.0,9.0,51,-99.99,,,0.00,,2013-03-14 14:01:00,
2013-03-14 08:12:00,38.0,22.0,-100.00,SSW,210,5.0,8.0,52,-99.99,,,0.00,,2013-03-14 14:12:00,
2013-03-14 08:22:00,38.0,22.0,-100.00,SSW,210,5.0,8.0,52,-99.99,,,0.00,,2013-03-14 14:22:00,
2013-03-14 08:31:00,38.0,23.0,-100.00,SSW,210,9.0,12.0,54,-99.99,,,0.00,,2013-03-14 14:31:00,
2013-03-14 08:32:00,38.0,22.0,-100.00,SSW,200,8.0,9.0,51,-99.99,,,0.00,,2013-03-14 14:32:00,
2013-03-14 08:42:00,38.0,22.0,-100.00,SSW,200,8.0,9.0,51,-99.99,,,0.00,,2013-03-14 14:42:00,
2013-03-14 08:52:00,38.0,22.0,-100.00,SSW,200,8.0,9.0,51,-99.99,,,0.00,,2013-03-14 14:52:00,
2013-03-14 09:12:00,38.0,23.0,-100.00,SSW,210,9.0,12.0,54,-99.99,,,0.00,,2013-03-14 15:12:00,
2013-03-14 09:22:00,38.0,23.0,-100.00,SSW,210,9.0,12.0,54,-99.99,,,0.00,,2013-03-14 15:22:00,
2013-03-14 11:01:00,43.0,26.0,-100.00,SSW,200,4.0,8.0,50,-99.99,,,0.00,,2013-03-14 17:01:00,
2013-03-14 11:12:00,43.0,25.0,-100.00,SW,235,3.0,7.0,48,-99.99,,,0.00,,2013-03-14 17:12:00,
2013-03-14 11:23:00,43.0,25.0,-100.00,SW,235,3.0,7.0,48,-99.99,,,0.00,,2013-03-14 17:23:00,
2013-03-14 11:32:00,43.0,26.0,-100.00,SSW,200,4.0,8.0,50,-99.99,,,0.00,,2013-03-14 17:32:00,
2013-03-14 11:42:00,43.0,26.0,-100.00,SSW,200,4.0,8.0,50,-99.99,,,0.00,,2013-03-14 17:42:00,
2013-03-14 11:52:00,43.0,26.0,-100.00,SSW,200,4.0,8.0,50,-99.99,,,0.00,,2013-03-14 17:52:00,
2013-03-14 12:02:00,45.0,26.0,-100.00,SW,225,6.0,9.0,48,-99.99,,,0.00,,2013-03-14 18:02:00,
2013-03-14 12:12:00,46.0,25.0,-100.00,SSW,195,3.0,6.0,44,-99.99,,,0.00,,2013-03-14 18:12:00,
2013-03-14 12:22:00,46.0,25.0,-100.00,SSW,195,3.0,6.0,44,-99.99,,,0.00,,2013-03-14 18:22:00,
2013-03-14 12:31:00,46.0,26.0,-100.00,SSW,210,9.0,11.0,45,-99.99,,,0.00,,2013-03-14 18:31:00,
2013-03-14 12:32:00,45.0,26.0,-100.00,SW,225,6.0,9.0,48,-99.99,,,0.00,,2013-03-14 18:32:00,
2013-03-14 12:43:00,45.0,26.0,-100.00,SW,225,6.0,9.0,48,-99.99,,,0.00,,2013-03-14 18:43:00,
2013-03-14 12:52:00,45.0,26.0,-100.00,SW,225,6.0,9.0,48,-99.99,,,0.00,,2013-03-14 18:52:00,
2013-03-14 13:12:00,46.0,26.0,-100.00,SSW,210,9.0,11.0,45,-99.99,,,0.00,,2013-03-14 19:12:00,
2013-03-14 13:22:00,46.0,26.0,-100.00,SSW,210,9.0,11.0,45,-99.99,,,0.00,,2013-03-14 19:22:00,
2013-03-14 14:01:00,48.0,24.0,-100.00,SW,220,6.0,12.0,38,-99.99,,,0.00,,2013-03-14 20:01:00,
2013-03-14 14:32:00,48.0,24.0,-100.00,SW,220,6.0,12.0,38,-99.99,,,0.00,,2013-03-14 20:32:00,
2013-03-14 14:42:00,48.0,24.0,-100.00,SW,220,6.0,12.0,38,-99.99,,,0.00,,2013-03-14 20:42:00,
2013-03-14 14:52:00,48.0,24.0,-100.00,SW,220,6.0,12.0,38,-99.99,,,0.00,,2013-03-14 20:52:00,
2013-03-14 15:01:00,50.0,23.0,-100.00,West,280,4.0,4.0,34,-99.99,,,0.00,,2013-03-14 21:01:00,
2013-03-14 15:12:00,47.0,24.0,-100.00,WSW,245,8.0,12.0,40,-99.99,,,0.00,,2013-03-14 21:12:00,
2013-03-14 15:22:00,47.0,24.0,-100.00,WSW,245,8.0,12.0,40,-99.99,,,0.00,,2013-03-14 21:22:00,
2013-03-14 15:32:00,50.0,23.0,-100.00,West,280,4.0,4.0,34,-99.99,,,0.00,,2013-03-14 21:32:00,
2013-03-14 15:43:00,50.0,23.0,-100.00,West,280,4.0,4.0,34,-99.99,,,0.00,,2013-03-14 21:43:00,
2013-03-14 15:52:00,50.0,23.0,-100.00,West,280,4.0,4.0,34,-99.99,,,0.00,,2013-03-14 21:52:00,
2013-03-14 16:12:00,46.0,26.0,-100.00,WSW,240,8.0,10.0,44,-99.99,,,0.00,,2013-03-14 22:12:00,
2013-03-14 16:23:00,46.0,26.0,-100.00,WSW,240,8.0,10.0,44,-99.99,,,0.00,,2013-03-14 22:23:00,
2013-03-14 16:32:00,45.0,27.0,-100.00,SSW,210,8.0,12.0,48,-99.99,,,0.00,,2013-03-14 22:32:00,
2013-03-14 16:52:00,45.0,27.0,-100.00,SSW,210,8.0,12.0,48,-99.99,,,0.00,,2013-03-14 22:52:00,
2013-03-14 17:12:00,46.0,24.0,-100.00,SSW,200,11.0,16.0,41,-99.99,,,0.00,,2013-03-14 23:12:00,
2013-03-14 17:22:00,46.0,24.0,-100.00,SSW,200,11.0,16.0,41,-99.99,,,0.00,,2013-03-14 23:22:00,
2013-03-14 17:33:00,47.0,25.0,-100.00,SSW,210,11.0,18.0,43,-99.99,,,0.00,,2013-03-14 23:33:00,
2013-03-14 17:53:00,47.0,25.0,-100.00,SSW,210,11.0,18.0,43,-99.99,,,0.00,,2013-03-14 23:53:00,
2013-03-14 18:02:00,48.0,24.0,-100.00,SW,230,3.0,4.0,38,-99.99,,,0.00,,2013-03-15 00:02:00,
2013-03-14 18:12:00,46.0,25.0,-100.00,SSW,200,6.0,11.0,44,-99.99,,,0.00,,2013-03-15 00:12:00,
2013-03-14 18:22:00,46.0,25.0,-100.00,SSW,200,6.0,11.0,44,-99.99,,,0.00,,2013-03-15 00:22:00,
2013-03-14 18:32:00,48.0,24.0,-100.00,SW,230,3.0,4.0,38,-99.99,,,0.00,,2013-03-15 00:32:00,
2013-03-14 18:42:00,48.0,24.0,-100.00,SW,230,3.0,4.0,38,-99.99,,,0.00,,2013-03-15 00:42:00,
2013-03-14 18:52:00,48.0,24.0,-100.00,SW,230,3.0,4.0,38,-99.99,,,0.00,,2013-03-15 00:52:00,
2013-03-14 19:01:00,46.0,24.0,-100.00,SSW,200,8.0,11.0,41,-99.99,,,0.00,,2013-03-15 01:01:00,
2013-03-14 19:11:00,49.0,23.0,-100.00,SSW,195,6.0,9.0,36,-99.99,,,0.00,,2013-03-15 01:11:00,
2013-03-14 19:22:00,49.0,23.0,-100.00,SSW,195,6.0,9.0,36,-99.99,,,0.00,,2013-03-15 01:22:00,
2013-03-14 19:32:00,46.0,24.0,-100.00,SSW,200,8.0,11.0,41,-99.99,,,0.00,,2013-03-15 01:32:00,
2013-03-14 19:42:00,46.0,24.0,-100.00,SSW,200,8.0,11.0,41,-99.99,,,0.00,,2013-03-15 01:42:00,
2013-03-14 19:52:00,46.0,24.0,-100.00,SSW,200,8.0,11.0,41,-99.99,,,0.00,,2013-03-15 01:52:00,
2013-03-14 20:01:00,43.0,24.0,-100.00,South,180,0.0,5.0,47,-99.99,,,0.00,,2013-03-15 02:01:00,
2013-03-14 20:12:00,45.0,23.0,-100.00,SSW,200,8.0,9.0,41,-99.99,,,0.00,,2013-03-15 02:12:00,
2013-03-14 20:22:00,45.0,23.0,-100.00,SSW,200,8.0,9.0,41,-99.99,,,0.00,,2013-03-15 02:22:00,
2013-03-14 20:32:00,43.0,24.0,-100.00,South,180,0.0,5.0,47,-99.99,,,0.00,,2013-03-15 02:32:00,
2013-03-14 20:42:00,43.0,24.0,-100.00,South,180,0.0,5.0,47,-99.99,,,0.00,,2013-03-15 02:42:00,
2013-03-14 20:52:00,43.0,24.0,-100.00,South,180,0.0,5.0,47,-99.99,,,0.00,,2013-03-15 02:52:00,
2013-03-14 21:12:00,40.0,24.0,-100.00,SE,145,1.0,3.0,54,-99.99,,,0.00,,2013-03-15 03:12:00,
2013-03-14 21:22:00,40.0,24.0,-100.00,SE,145,1.0,3.0,54,-99.99,,,0.00,,2013-03-15 03:22:00,
2013-03-14 21:32:00,36.0,26.0,-100.00,NNE,15,0.0,1.0,67,-99.99,,,0.00,,2013-03-15 03:32:00,
2013-03-14 21:52:00,36.0,26.0,-100.00,NNE,15,0.0,1.0,67,-99.99,,,0.00,,2013-03-15 03:52:00,
2013-03-14 22:12:00,38.0,23.0,-100.00,SE,140,3.0,4.0,54,-99.99,,,0.00,,2013-03-15 04:12:00,
2013-03-14 22:22:00,38.0,23.0,-100.00,SE,140,3.0,4.0,54,-99.99,,,0.00,,2013-03-15 04:22:00,
2013-03-14 22:32:00,38.0,24.0,-100.00,NE,40,1.0,4.0,58,-99.99,,,0.00,,2013-03-15 04:32:00,
2013-03-14 22:43:00,38.0,24.0,-100.00,NE,40,1.0,4.0,58,-99.99,,,0.00,,2013-03-15 04:43:00,
2013-03-14 22:52:00,38.0,24.0,-100.00,NE,40,1.0,4.0,58,-99.99,,,0.00,,2013-03-15 04:52:00,
2013-03-14 23:01:00,37.0,25.0,-100.00,NE,40,0.0,1.0,60,-99.99,,,0.00,,2013-03-15 05:01:00,
2013-03-14 23:02:00,38.0,24.0,-100.00,NE,40,1.0,4.0,58,-99.99,,,0.00,,2013-03-15 05:02:00,
2013-03-14 23:12:00,39.0,24.0,-100.00,NE,35,2.0,6.0,53,-99.99,,,0.00,,2013-03-15 05:12:00,
2013-03-14 23:22:00,39.0,24.0,-100.00,NE,35,2.0,6.0,53,-99.99,,,0.00,,2013-03-15 05:22:00,
2013-03-14 23:32:00,37.0,25.0,-100.00,NE,40,0.0,1.0,60,-99.99,,,0.00,,2013-03-15 05:32:00,
2013-03-14 23:42:00,37.0,25.0,-100.00,NE,40,0.0,1.0,60,-99.99,,,0.00,,2013-03-15 05:42:00,
2013-03-14 23:52:00,37.0,25.0,-100.00,NE,40,0.0,1.0,60,-99.99,,,0.00,,2013-03-15 05:52:00,